QPF
0.06 0.05 0.04 0.02 0.02 0.02 0.01 0.00 0.00 0.00 0.00 0.00 0.00 0.00 0.00 0.00 0.00 0.00 0.00 0.00 0.00 0.00 0.00 0.00 0.00 0.00 0.00 0.00 0.00 0.00 0.00 0.01 0.01 0.01 0.01 0.01 0.01 0.00 0.01 0.01 0.01 0.02 0.01 0.01
0.05 0.03 0.02 0.01 0.01 0.02 0.01 0.01 0.00 0.00 0.00 0.00 0.00 0.00 0.00 0.00 0.00 0.00 0.00 0.00 0.00 0.00 0.00 0.00 0.00 0.00 0.00 0.00 0.00 0.00 0.00 0.00 0.01 0.01 0.01 0.01 0.01 0.01 0.02 0.02 0.02 0.02 0.02 0.02
0.02 0.01 0.01 0.02 0.02 0.03 0.02 0.01 0.00 0.00 0.00 0.00 0.00 0.00 0.00 0.00 0.00 0.00 0.00 0.00 0.00 0.00 0.00 0.00 0.00 0.00 0.00 0.00 0.00 0.00 0.00 0.00 0.00 0.01 0.01 0.01 0.01 0.01 0.02 0.01 0.01 0.01 0.01 0.01
0.02 0.01 0.01 0.02 0.03 0.03 0.03 0.01 0.00 0.00 0.00 0.00 0.00 0.01 0.00 0.00 0.00 0.00 0.00 0.00 0.00 0.00 0.00 0.00 0.00 0.00 0.00 0.00 0.00 0.00 0.01 0.01 0.01 0.01 0.01 0.01 0.01 0.01 0.01 0.01 0.01 0.01 0.01 0.01
0.03 0.01 0.01 0.01 0.02 0.03 0.02 0.01 0.01 0.01 0.01 0.01 0.00 0.01 0.00 0.00 0.00 0.00 0.00 0.00 0.00 0.00 0.00 0.00 0.00 0.00 0.00 0.00 0.00 0.00 0.00 0.00 0.01 0.01 0.02 0.02 0.01 0.01 0.01 0.01 0.00 0.00 0.01 0.01
0.02 0.02 0.02 0.01 0.01 0.02 0.03 0.03 0.03 0.03 0.03 0.02 0.00 0.00 0.00 0.00 0.00 0.00 0.00 0.00 0.00 0.00 0.00 0.00 0.00 0.00 0.00 0.00 0.00 0.00 0.00 0.00 0.00 0.01 0.01 0.01 0.01 0.01 0.01 0.00 0.00 0.00 0.01 0.01
0.03 0.03 0.02 0.01 0.01 0.02 0.05 0.07 0.10 0.10 0.08 0.03 0.00 0.00 0.00 0.00 0.00 0.00 0.00 0.00 0.00 0.00 0.00 0.00 0.00 0.00 0.00 0.00 0.00 0.00 0.00 0.00 0.00 0.00 0.00 0.01 0.01 0.01 0.01 0.00 0.00 0.00 0.00 0.00
0.03 0.04 0.03 0.02 0.02 0.03 0.05 0.06 0.05 0.05 0.03 0.01 0.00 0.00 0.00 0.00 0.00 0.00 0.00 0.00 0.00 0.00 0.00 0.00 0.00 0.00 0.00 0.00 0.00 0.00 0.00 0.00 0.00 0.00 0.00 0.00 0.01 0.01 0.01 0.00 0.00 0.00 0.00 0.00
0.04 0.03 0.02 0.02 0.02 0.01 0.03 0.05 0.04 0.03 0.01 0.00 0.00 0.00 0.00 0.00 0.00 0.00 0.00 0.00 0.00 0.00 0.00 0.00 0.00 0.00 0.00 0.00 0.00 0.00 0.00 0.00 0.00 0.00 0.00 0.01 0.01 0.01 0.01 0.00 0.00 0.00 0.00 0.00
0.04 0.03 0.02 0.02 0.02 0.02 0.02 0.03 0.05 0.06 0.04 0.01 0.00 0.00 0.00 0.00 0.00 0.00 0.00 0.00 0.00 0.00 0.00 0.00 0.00 0.00 0.00 0.00 0.00 0.00 0.00 0.00 0.00 0.00 0.00 0.00 0.01 0.01 0.01 0.00 0.00 0.00 0.00 0.00
0.03 0.04 0.04 0.04 0.04 0.03 0.02 0.05 0.06 0.06 0.04 0.03 0.01 0.00 0.00 0.00 0.00 0.00 0.00 0.00 0.00 0.00 0.00 0.00 0.00 0.00 0.00 0.00 0.00 0.00 0.00 0.00 0.00 0.00 0.00 0.00 0.00 0.00 0.00 0.00 0.00 0.00 0.00 0.00
0.03 0.04 0.04 0.04 0.03 0.02 0.02 0.02 0.04 0.06 0.05 0.03 0.02 0.01 0.01 0.00 0.00 0.01 0.00 0.00 0.00 0.00 0.00 0.00 0.00 0.00 0.00 0.00 0.00 0.00 0.00 0.00 0.00 0.00 0.00 0.00 0.00 0.00 0.00 0.00 0.00 0.00 0.00 0.00
0.05 0.05 0.04 0.05 0.05 0.04 0.03 0.02 0.02 0.03 0.03 0.02 0.02 0.01 0.01 0.00 0.00 0.01 0.00 0.00 0.00 0.00 0.00 0.00 0.00 0.00 0.00 0.00 0.00 0.00 0.00 0.00 0.00 0.00 0.00 0.00 0.00 0.00 0.00 0.00 0.00 0.00 0.00 0.00
0.04 0.04 0.03 0.04 0.04 0.04 0.04 0.03 0.03 0.04 0.05 0.03 0.01 0.01 0.01 0.00 0.00 0.00 0.00 0.00 0.00 0.00 0.00 0.00 0.00 0.00 0.00 0.00 0.00 0.00 0.00 0.00 0.00 0.00 0.00 0.00 0.00 0.00 0.00 0.00 0.00 0.00 0.00 0.00
0.02 0.02 0.02 0.02 0.02 0.02 0.03 0.03 0.03 0.03 0.04 0.03 0.01 0.00 0.01 0.01 0.01 0.00 0.00 0.00 0.00 0.00 0.00 0.00 0.00 0.00 0.00 0.00 0.00 0.00 0.00 0.00 0.00 0.00 0.00 0.00 0.00 0.00 0.00 0.00 0.00 0.00 0.00 0.00
0.01 0.02 0.01 0.01 0.01 0.01 0.02 0.02 0.02 0.02 0.03 0.03 0.01 0.01 0.01 0.01 0.01 0.01 0.00 0.00 0.00 0.00 0.00 0.00 0.00 0.00 0.00 0.00 0.00 0.00 0.00 0.00 0.00 0.00 0.00 0.00 0.00 0.00 0.00 0.00 0.00 0.00 0.00 0.00
0.01 0.01 0.01 0.01 0.01 0.02 0.03 0.03 0.03 0.04 0.04 0.04 0.03 0.02 0.02 0.02 0.01 0.01 0.01 0.00 0.00 0.00 0.00 0.00 0.00 0.00 0.00 0.00 0.00 0.00 0.00 0.00 0.00 0.00 0.00 0.00 0.00 0.00 0.00 0.00 0.00 0.00 0.00 0.00
0.01 0.01 0.02 0.01 0.01 0.03 0.03 0.03 0.02 0.03 0.04 0.03 0.03 0.03 0.02 0.03 0.02 0.02 0.01 0.01 0.01 0.00 0.00 0.00 0.01 0.01 0.00 0.00 0.00 0.00 0.00 0.00 0.00 0.00 0.00 0.00 0.00 0.00 0.00 0.00 0.00 0.00 0.00 0.00
0.02 0.02 0.02 0.02 0.02 0.02 0.03 0.02 0.02 0.02 0.03 0.03 0.03 0.03 0.02 0.02 0.02 0.01 0.01 0.01 0.01 0.00 0.00 0.00 0.01 0.01 0.01 0.01 0.01 0.00 0.00 0.00 0.00 0.00 0.00 0.00 0.00 0.00 0.00 0.00 0.00 0.00 0.00 0.00
0.01 0.02 0.02 0.02 0.02 0.02 0.03 0.02 0.01 0.01 0.03 0.02 0.02 0.02 0.02 0.01 0.01 0.01 0.01 0.00 0.00 0.01 0.01 0.00 0.01 0.01 0.01 0.01 0.01 0.01 0.01 0.00 0.00 0.00 0.00 0.00 0.00 0.00 0.00 0.00 0.00 0.00 0.00 0.00
0.02 0.02 0.02 0.02 0.02 0.02 0.02 0.01 0.01 0.02 0.02 0.02 0.02 0.01 0.02 0.02 0.02 0.01 0.00 0.00 0.00 0.00 0.01 0.01 0.00 0.00 0.01 0.01 0.01 0.01 0.02 0.01 0.01 0.00 0.00 0.00 0.00 0.00 0.00 0.00 0.00 0.00 0.00 0.00
0.02 0.02 0.02 0.02 0.02 0.01 0.01 0.01 0.02 0.02 0.01 0.01 0.01 0.01 0.01 0.01 0.01 0.01 0.01 0.00 0.00 0.00 0.00 0.00 0.00 0.00 0.00 0.01 0.01 0.01 0.01 0.01 0.01 0.01 0.01 0.00 0.00 0.00 0.00 0.00 0.00 0.00 0.00 0.00
0.02 0.02 0.02 0.01 0.02 0.02 0.02 0.02 0.02 0.02 0.01 0.01 0.01 0.01 0.02 0.02 0.01 0.01 0.01 0.01 0.00 0.00 0.00 0.00 0.01 0.01 0.00 0.00 0.00 0.00 0.00 0.01 0.01 0.01 0.01 0.01 0.01 0.01 0.00 0.00 0.00 0.00 0.00 0.00
0.02 0.02 0.02 0.01 0.01 0.02 0.02 0.01 0.01 0.02 0.02 0.02 0.02 0.02 0.03 0.02 0.02 0.02 0.02 0.01 0.01 0.01 0.01 0.01 0.00 0.00 0.00 0.01 0.01 0.01 0.00 0.00 0.00 0.00 0.00 0.00 0.00 0.00 0.00 0.00 0.00 0.00 0.00 0.00
0.01 0.02 0.02 0.02 0.02 0.02 0.01 0.01 0.02 0.01 0.02 0.02 0.02 0.02 0.03 0.03 0.02 0.02 0.02 0.02 0.02 0.02 0.01 0.01 0.01 0.00 0.00 0.01 0.01 0.01 0.01 0.01 0.01 0.00 0.00 0.00 0.00 0.00 0.00 0.00 0.00 0.00 0.00 0.00
0.01 0.02 0.02 0.01 0.02 0.02 0.02 0.02 0.02 0.02 0.02 0.02 0.02 0.02 0.02 0.03 0.03 0.03 0.03 0.03 0.03 0.03 0.02 0.01 0.01 0.01 0.01 0.01 0.01 0.01 0.01 0.01 0.01 0.01 0.00 0.00 0.00 0.00 0.00 0.00 0.00 0.00 0.00 0.00
MSLP
1015.41 1015.28 1015.15 1015.06 1015.06 1015.17 1015.41 1015.74 1016.14 1016.55 1016.93 1017.25 1017.50 1017.69 1017.85 1018.01 1018.23 1018.53 1018.93 1019.43 1020.01 1020.63 1021.26 1021.87 1022.42 1022.92 1023.34 1023.69 1023.98 1024.22 1024.41 1024.55 1024.66 1024.72 1024.76 1024.76 1024.73 1024.68 1024.61 1024.51 1024.38 1024.21 1023.99 1023.71
1015.35 1015.16 1014.99 1014.88 1014.89 1015.04 1015.32 1015.71 1016.14 1016.57 1016.94 1017.21 1017.38 1017.47 1017.52 1017.57 1017.70 1017.93 1018.30 1018.80 1019.42 1020.11 1020.84 1021.54 1022.19 1022.77 1023.27 1023.68 1024.01 1024.28 1024.49 1024.65 1024.77 1024.84 1024.89 1024.90 1024.89 1024.85 1024.78 1024.69 1024.56 1024.39 1024.17 1023.89
1015.32 1015.12 1014.94 1014.86 1014.91 1015.10 1015.43 1015.84 1016.29 1016.69 1016.99 1017.16 1017.20 1017.13 1017.02 1016.93 1016.93 1017.09 1017.41 1017.92 1018.59 1019.37 1020.21 1021.04 1021.83 1022.54 1023.15 1023.65 1024.06 1024.38 1024.62 1024.80 1024.93 1025.01 1025.05 1025.07 1025.05 1025.01 1024.95 1024.86 1024.73 1024.56 1024.33 1024.05
1015.28 1015.11 1014.99 1014.96 1015.07 1015.33 1015.69 1016.12 1016.53 1016.86 1017.04 1017.06 1016.92 1016.65 1016.35 1016.09 1015.95 1016.01 1016.30 1016.82 1017.55 1018.44 1019.41 1020.40 1021.35 1022.21 1022.96 1023.58 1024.08 1024.48 1024.77 1024.97 1025.12 1025.20 1025.24 1025.25 1025.23 1025.18 1025.11 1025.01 1024.88 1024.70 1024.47 1024.18
1015.19 1015.09 1015.06 1015.12 1015.31 1015.63 1016.02 1016.44 1016.78 1017.00 1017.03 1016.85 1016.50 1016.02 1015.52 1015.08 1014.81 1014.79 1015.04 1015.59 1016.39 1017.38 1018.49 1019.65 1020.76 1021.79 1022.70 1023.45 1024.07 1024.55 1024.90 1025.14 1025.31 1025.40 1025.43 1025.43 1025.39 1025.33 1025.25 1025.14 1025.00 1024.82 1024.59 1024.29
1015.00 1015.00 1015.06 1015.23 1015.51 1015.89 1016.29 1016.67 1016.93 1017.01 1016.86 1016.49 1015.93 1015.25 1014.57 1013.99 1013.61 1013.53 1013.78 1014.35 1015.22 1016.32 1017.57 1018.87 1020.14 1021.33 1022.37 1023.26 1023.99 1024.55 1024.97 1025.26 1025.45 1025.56 1025.59 1025.58 1025.54 1025.47 1025.37 1025.26 1025.12 1024.93 1024.70 1024.40
1014.68 1014.77 1014.95 1015.21 1015.57 1015.99 1016.40 1016.72 1016.88 1016.82 1016.51 1015.96 1015.23 1014.40 1013.58 1012.91 1012.48 1012.39 1012.65 1013.27 1014.22 1015.41 1016.75 1018.17 1019.56 1020.86 1022.02 1023.01 1023.83 1024.48 1024.96 1025.31 1025.53 1025.66 1025.71 1025.70 1025.66 1025.59 1025.49 1025.38 1025.24 1025.05 1024.81 1024.50
1014.27 1014.43 1014.68 1015.03 1015.45 1015.88 1016.27 1016.53 1016.59 1016.41 1015.96 1015.28 1014.44 1013.52 1012.66 1011.97 1011.56 1011.49 1011.81 1012.49 1013.50 1014.75 1016.16 1017.63 1019.09 1020.45 1021.67 1022.73 1023.62 1024.33 1024.87 1025.27 1025.54 1025.70 1025.78 1025.79 1025.76 1025.70 1025.61 1025.50 1025.36 1025.18 1024.94 1024.63
1013.83 1014.02 1014.32 1014.71 1015.15 1015.58 1015.93 1016.12 1016.09 1015.80 1015.27 1014.52 1013.63 1012.72 1011.89 1011.26 1010.93 1010.95 1011.35 1012.10 1013.16 1014.44 1015.86 1017.34 1018.79 1020.15 1021.39 1022.47 1023.38 1024.14 1024.73 1025.17 1025.49 1025.70 1025.82 1025.87 1025.86 1025.82 1025.74 1025.64 1025.50 1025.32 1025.08 1024.77
1013.44 1013.63 1013.94 1014.33 1014.76 1015.16 1015.45 1015.56 1015.45 1015.09 1014.51 1013.75 1012.89 1012.05 1011.33 1010.84 1010.65 1010.80 1011.30 1012.13 1013.21 1014.49 1015.88 1017.31 1018.70 1020.01 1021.20 1022.26 1023.17 1023.94 1024.57 1025.07 1025.44 1025.70 1025.86 1025.95 1025.97 1025.95 1025.88 1025.79 1025.65 1025.47 1025.23 1024.93
1013.19 1013.36 1013.64 1014.01 1014.40 1014.73 1014.94 1014.98 1014.79 1014.38 1013.78 1013.06 1012.28 1011.57 1011.01 1010.70 1010.68 1010.99 1011.60 1012.49 1013.60 1014.84 1016.16 1017.50 1018.79 1020.00 1021.12 1022.13 1023.02 1023.80 1024.45 1024.99 1025.41 1025.73 1025.94 1026.06 1026.10 1026.09 1026.03 1025.94 1025.80 1025.62 1025.38 1025.07
1013.13 1013.25 1013.50 1013.81 1014.14 1014.40 1014.52 1014.47 1014.21 1013.76 1013.16 1012.49 1011.82 1011.26 1010.88 1010.75 1010.92 1011.37 1012.09 1013.04 1014.14 1015.35 1016.58 1017.81 1018.99 1020.10 1021.13 1022.09 1022.95 1023.73 1024.41 1024.99 1025.45 1025.81 1026.05 1026.20 1026.25 1026.24 1026.18 1026.07 1025.92 1025.72 1025.48 1025.18
1013.23 1013.31 1013.51 1013.77 1014.02 1014.19 1014.22 1014.08 1013.75 1013.26 1012.67 1012.04 1011.48 1011.05 1010.83 1010.88 1011.20 1011.78 1012.60 1013.58 1014.68 1015.83 1016.99 1018.12 1019.20 1020.23 1021.20 1022.11 1022.96 1023.75 1024.45 1025.06 1025.56 1025.95 1026.21 1026.36 1026.41 1026.38 1026.29 1026.16 1025.98 1025.78 1025.53 1025.24
1013.41 1013.45 1013.61 1013.82 1014.00 1014.08 1014.03 1013.79 1013.39 1012.86 1012.26 1011.68 1011.18 1010.86 1010.77 1010.94 1011.38 1012.06 1012.93 1013.94 1015.03 1016.15 1017.25 1018.32 1019.34 1020.32 1021.26 1022.16 1023.02 1023.83 1024.57 1025.21 1025.73 1026.13 1026.39 1026.53 1026.56 1026.49 1026.36 1026.19 1025.99 1025.76 1025.51 1025.23
1013.54 1013.57 1013.69 1013.84 1013.96 1013.97 1013.83 1013.52 1013.06 1012.49 1011.88 1011.31 1010.86 1010.60 1010.59 1010.84 1011.35 1012.08 1012.99 1014.01 1015.09 1016.19 1017.27 1018.32 1019.33 1020.31 1021.27 1022.20 1023.10 1023.95 1024.72 1025.39 1025.93 1026.32 1026.57 1026.68 1026.66 1026.55 1026.37 1026.16 1025.93 1025.69 1025.44 1025.17
1013.52 1013.51 1013.60 1013.70 1013.76 1013.70 1013.51 1013.14 1012.64 1012.04 1011.43 1010.87 1010.45 1010.22 1010.25 1010.53 1011.07 1011.82 1012.74 1013.76 1014.84 1015.95 1017.04 1018.11 1019.16 1020.20 1021.21 1022.21 1023.17 1024.07 1024.88 1025.57 1026.11 1026.49 1026.71 1026.78 1026.71 1026.56 1026.33 1026.08 1025.83 1025.57 1025.33 1025.08
1013.26 1013.20 1013.23 1013.28 1013.28 1013.19 1012.95 1012.56 1012.05 1011.45 1010.85 1010.31 1009.92 1009.72 1009.75 1010.05 1010.59 1011.34 1012.24 1013.27 1014.36 1015.48 1016.62 1017.75 1018.88 1019.99 1021.10 1022.18 1023.21 1024.17 1025.01 1025.71 1026.25 1026.61 1026.79 1026.81 1026.71 1026.51 1026.26 1025.98 1025.72 1025.47 1025.23 1025.01
1012.75 1012.61 1012.56 1012.54 1012.49 1012.36 1012.11 1011.73 1011.24 1010.69 1010.14 1009.65 1009.30 1009.13 1009.19 1009.49 1010.02 1010.76 1011.65 1012.68 1013.78 1014.94 1016.13 1017.34 1018.56 1019.77 1020.97 1022.14 1023.24 1024.24 1025.11 1025.81 1026.33 1026.66 1026.81 1026.79 1026.66 1026.43 1026.17 1025.89 1025.64 1025.40 1025.19 1024.99
1012.08 1011.82 1011.66 1011.55 1011.44 1011.28 1011.03 1010.69 1010.27 1009.81 1009.35 1008.96 1008.68 1008.58 1008.68 1009.00 1009.53 1010.26 1011.15 1012.17 1013.29 1014.49 1015.73 1017.02 1018.32 1019.62 1020.91 1022.14 1023.29 1024.32 1025.18 1025.87 1026.36 1026.66 1026.77 1026.73 1026.58 1026.36 1026.10 1025.85 1025.62 1025.41 1025.23 1025.05
1011.39 1010.97 1010.68 1010.46 1010.28 1010.09 1009.87 1009.59 1009.27 1008.92 1008.60 1008.33 1008.18 1008.17 1008.34 1008.70 1009.26 1009.99 1010.88 1011.91 1013.04 1014.27 1015.56 1016.90 1018.26 1019.62 1020.95 1022.22 1023.38 1024.41 1025.25 1025.91 1026.36 1026.62 1026.71 1026.66 1026.51 1026.31 1026.09 1025.87 1025.69 1025.52 1025.37 1025.21
1010.85 1010.27 1009.82 1009.49 1009.23 1009.01 1008.80 1008.59 1008.38 1008.17 1008.00 1007.89 1007.88 1008.00 1008.27 1008.70 1009.30 1010.05 1010.96 1011.99 1013.13 1014.37 1015.69 1017.05 1018.44 1019.82 1021.16 1022.42 1023.56 1024.55 1025.35 1025.96 1026.36 1026.59 1026.66 1026.60 1026.48 1026.31 1026.13 1025.97 1025.83 1025.70 1025.58 1025.44
1010.61 1009.87 1009.28 1008.83 1008.48 1008.23 1008.03 1007.88 1007.77 1007.69 1007.68 1007.73 1007.88 1008.13 1008.51 1009.02 1009.68 1010.47 1011.39 1012.43 1013.58 1014.82 1016.13 1017.48 1018.86 1020.22 1021.53 1022.75 1023.83 1024.76 1025.49 1026.04 1026.39 1026.58 1026.64 1026.59 1026.48 1026.36 1026.23 1026.12 1026.03 1025.94 1025.84 1025.71
1010.73 1009.89 1009.18 1008.63 1008.20 1007.90 1007.69 1007.58 1007.54 1007.58 1007.69 1007.88 1008.17 1008.55 1009.04 1009.64 1010.36 1011.19 1012.13 1013.18 1014.32 1015.54 1016.83 1018.15 1019.49 1020.80 1022.04 1023.19 1024.19 1025.03 1025.69 1026.17 1026.47 1026.62 1026.66 1026.62 1026.54 1026.45 1026.37 1026.30 1026.24 1026.19 1026.11 1025.97
1011.23 1010.33 1009.56 1008.92 1008.43 1008.08 1007.85 1007.74 1007.74 1007.84 1008.04 1008.33 1008.72 1009.21 1009.79 1010.47 1011.25 1012.12 1013.08 1014.13 1015.26 1016.45 1017.70 1018.98 1020.25 1021.48 1022.64 1023.69 1024.61 1025.36 1025.94 1026.34 1026.59 1026.71 1026.74 1026.70 1026.64 1026.58 1026.53 1026.49 1026.46 1026.41 1026.34 1026.20
1012.01 1011.12 1010.33 1009.67 1009.13 1008.72 1008.45 1008.32 1008.31 1008.43 1008.67 1009.02 1009.48 1010.03 1010.68 1011.42 1012.24 1013.14 1014.12 1015.17 1016.28 1017.45 1018.65 1019.86 1021.06 1022.21 1023.28 1024.23 1025.05 1025.71 1026.21 1026.55 1026.75 1026.84 1026.85 1026.82 1026.77 1026.72 1026.69 1026.66 1026.64 1026.59 1026.51 1026.37
1012.94 1012.13 1011.38 1010.72 1010.16 1009.71 1009.39 1009.20 1009.16 1009.26 1009.49 1009.85 1010.33 1010.92 1011.61 1012.39 1013.24 1014.17 1015.16 1016.21 1017.31 1018.44 1019.59 1020.74 1021.86 1022.92 1023.90 1024.76 1025.49 1026.07 1026.49 1026.77 1026.93 1027.00 1027.00 1026.96 1026.92 1026.87 1026.84 1026.81 1026.78 1026.73 1026.64 1026.48
Thickness
5506 5512 5522 5532 5539 5549 5555 5559 5563 5569 5570 5573 5582 5591 5600 5603 5607 5615 5621 5626 5629 5633 5636 5636 5636 5636 5636 5636 5636 5636 5634 5632 5630 5629 5629 5628 5627 5626 5625 5624 5623 5622 5621 5620
5496 5506 5520 5526 5528 5530 5537 5543 5551 5553 5556 5562 5571 5580 5590 5595 5601 5608 5614 5620 5624 5627 5628 5628 5629 5630 5631 5631 5631 5630 5629 5627 5626 5625 5624 5623 5621 5619 5618 5616 5615 5614 5613 5612
5493 5505 5508 5511 5514 5519 5525 5532 5541 5542 5543 5549 5555 5571 5583 5590 5594 5599 5605 5611 5616 5619 5622 5622 5622 5624 5625 5625 5625 5625 5624 5621 5620 5618 5616 5614 5612 5611 5610 5609 5608 5607 5606 5605
5483 5491 5495 5500 5505 5510 5516 5524 5528 5529 5533 5540 5545 5558 5581 5584 5586 5591 5598 5602 5606 5610 5613 5615 5616 5618 5619 5620 5619 5618 5617 5615 5613 5612 5611 5611 5611 5610 5608 5605 5602 5600 5598 5597
5474 5481 5486 5491 5499 5501 5507 5512 5516 5521 5524 5526 5534 5537 5572 5572 5578 5587 5592 5595 5598 5601 5604 5606 5609 5611 5612 5611 5611 5610 5610 5608 5606 5605 5606 5605 5605 5604 5601 5598 5596 5594 5591 5590
5466 5472 5478 5485 5491 5493 5493 5497 5501 5507 5512 5512 5532 5535 5561 5569 5576 5580 5583 5586 5589 5592 5595 5597 5600 5601 5602 5603 5603 5603 5602 5601 5600 5599 5599 5599 5599 5597 5594 5591 5589 5587 5585 5582
5456 5462 5466 5473 5477 5481 5485 5489 5492 5496 5501 5518 5529 5531 5553 5560 5562 5566 5570 5574 5578 5582 5585 5587 5590 5593 5594 5595 5596 5596 5596 5595 5594 5592 5592 5592 5591 5589 5588 5586 5583 5581 5579 5577
5446 5455 5458 5462 5470 5473 5479 5487 5494 5501 5510 5521 5515 5527 5545 5543 5546 5551 5555 5560 5565 5570 5574 5578 5581 5584 5587 5588 5588 5589 5589 5588 5587 5586 5585 5584 5583 5582 5581 5579 5577 5575 5573 5570
5439 5446 5450 5452 5460 5470 5471 5478 5484 5489 5496 5505 5516 5525 5531 5531 5536 5539 5543 5547 5553 5558 5563 5567 5571 5574 5577 5580 5581 5582 5582 5581 5579 5578 5577 5576 5575 5574 5573 5570 5569 5567 5564 5561
5425 5428 5438 5443 5452 5457 5467 5468 5471 5478 5487 5503 5513 5521 5532 5526 5530 5530 5533 5537 5541 5545 5550 5555 5560 5564 5567 5570 5571 5572 5573 5572 5571 5569 5569 5568 5567 5566 5564 5562 5561 5558 5556 5553
5416 5419 5427 5433 5439 5447 5452 5455 5464 5474 5480 5496 5505 5518 5514 5514 5514 5518 5522 5525 5528 5533 5538 5544 5549 5553 5556 5559 5561 5562 5563 5562 5561 5560 5560 5559 5558 5556 5555 5554 5552 5550 5547 5545
5408 5415 5418 5420 5422 5427 5441 5452 5457 5463 5467 5478 5494 5501 5494 5498 5499 5502 5506 5509 5515 5519 5524 5530 5536 5541 5545 5548 5550 5551 5552 5552 5552 5551 5550 5550 5548 5546 5546 5544 5543 5540 5538 5536
5400 5404 5413 5420 5420 5420 5424 5431 5440 5448 5457 5469 5482 5490 5483 5484 5486 5488 5492 5497 5502 5506 5512 5518 5524 5529 5533 5536 5539 5541 5542 5542 5541 5541 5540 5540 5538 5537 5536 5535 5533 5531 5529 5527
5396 5394 5404 5415 5419 5418 5416 5420 5427 5437 5451 5461 5472 5478 5475 5472 5473 5476 5479 5483 5489 5494 5499 5505 5511 5517 5521 5524 5528 5530 5531 5531 5531 5530 5530 5529 5528 5527 5526 5525 5523 5521 5520 5518
5385 5389 5391 5399 5404 5409 5413 5415 5421 5429 5442 5452 5462 5462 5464 5459 5460 5463 5467 5472 5478 5482 5487 5492 5499 5504 5509 5513 5516 5518 5520 5520 5520 5520 5519 5518 5517 5516 5515 5514 5513 5511 5509 5508
5371 5377 5384 5392 5400 5404 5405 5410 5415 5420 5426 5436 5441 5445 5446 5444 5447 5451 5456 5461 5466 5470 5474 5479 5485 5491 5497 5502 5504 5506 5508 5509 5509 5510 5509 5507 5506 5505 5505 5504 5502 5501 5499 5498
5365 5366 5379 5393 5393 5398 5403 5400 5403 5410 5415 5422 5431 5436 5431 5433 5435 5440 5445 5449 5454 5458 5462 5468 5473 5479 5484 5489 5493 5495 5496 5497 5498 5498 5497 5496 5496 5495 5494 5493 5492 5491 5489 5488
5354 5358 5368 5380 5386 5390 5393 5389 5392 5397 5401 5406 5413 5418 5421 5424 5426 5429 5433 5439 5443 5446 5451 5457 5462 5467 5472 5477 5481 5483 5485 5486 5487 5487 5486 5486 5485 5485 5484 5483 5482 5481 5480 5478
5353 5355 5364 5372 5382 5389 5386 5380 5379 5385 5395 5394 5399 5406 5409 5410 5418 5425 5424 5428 5432 5436 5441 5447 5452 5456 5461 5466 5470 5472 5473 5474 5475 5475 5475 5475 5475 5475 5474 5473 5472 5471 5470 5468
5344 5346 5356 5362 5372 5380 5377 5370 5372 5380 5394 5386 5386 5393 5397 5403 5419 5423 5415 5417 5421 5425 5430 5435 5441 5445 5451 5454 5458 5461 5462 5463 5463 5463 5463 5464 5464 5464 5464 5463 5461 5460 5459 5457
5340 5343 5346 5355 5363 5371 5361 5359 5369 5380 5384 5373 5377 5383 5388 5395 5404 5404 5403 5406 5410 5414 5418 5423 5429 5433 5437 5441 5445 5448 5450 5450 5450 5451 5451 5452 5453 5453 5452 5451 5450 5449 5448 5447
5336 5342 5339 5346 5355 5359 5349 5354 5359 5361 5361 5364 5369 5374 5378 5382 5385 5389 5392 5394 5399 5403 5407 5412 5417 5420 5424 5428 5433 5436 5437 5437 5438 5439 5440 5441 5441 5441 5441 5440 5439 5438 5437 5437
5324 5325 5333 5336 5344 5342 5339 5341 5343 5345 5351 5357 5361 5365 5368 5372 5376 5379 5381 5384 5388 5392 5396 5401 5405 5409 5412 5416 5420 5423 5424 5425 5426 5428 5428 5429 5429 5430 5429 5429 5429 5428 5427 5426
5317 5310 5315 5322 5333 5332 5332 5333 5336 5339 5342 5347 5351 5355 5359 5363 5367 5369 5372 5375 5378 5382 5386 5390 5395 5398 5401 5404 5407 5410 5411 5413 5416 5417 5417 5418 5418 5418 5418 5418 5417 5417 5416 5416
5311 5309 5313 5318 5324 5326 5330 5327 5329 5331 5334 5339 5342 5346 5350 5354 5357 5359 5362 5365 5368 5371 5375 5379 5383 5386 5389 5392 5395 5398 5400 5403 5405 5406 5406 5406 5407 5407 5407 5406 5405 5405 5405 5404
5304 5304 5311 5320 5316 5315 5319 5318 5320 5323 5326 5330 5334 5338 5341 5344 5347 5349 5352 5354 5358 5361 5364 5368 5372 5375 5378 5381 5384 5386 5389 5392 5394 5395 5395 5396 5396 5396 5396 5396 5395 5393 5393 5392